TimeAKDT,TemperatureF,Dew PointF,Humidity,Sea Level PressureIn,VisibilityMPH,Wind Direction,Wind SpeedMPH,Gust SpeedMPH,PrecipitationIn,Events,Conditions,WindDirDegrees,DateUTC
12:16 AM,26.6,19.4,74,30.09,10.0,Calm,Calm,-,N/A,,Clear,0,2013-04-30 08:16:00
12:36 AM,26.6,17.6,69,30.09,10.0,East,3.5,-,N/A,,Partly Cloudy,100,2013-04-30 08:36:00
12:56 AM,28.4,19.4,69,30.08,10.0,East,4.6,-,N/A,,Partly Cloudy,100,2013-04-30 08:56:00
1:16 AM,28.4,17.6,64,30.08,10.0,ENE,3.5,-,N/A,,Clear,70,2013-04-30 09:16:00
1:36 AM,28.4,17.6,64,30.08,10.0,East,3.5,-,N/A,,Clear,80,2013-04-30 09:36:00
1:56 AM,28.4,17.6,64,30.07,10.0,East,3.5,-,N/A,,Clear,90,2013-04-30 09:56:00
2:16 AM,28.4,19.4,69,30.07,10.0,East,3.5,-,N/A,,Clear,90,2013-04-30 10:16:00
2:36 AM,28.4,19.4,69,30.06,10.0,Calm,Calm,-,N/A,,Clear,0,2013-04-30 10:36:00
2:56 AM,28.4,19.4,69,30.05,10.0,East,5.8,-,N/A,,Clear,90,2013-04-30 10:56:00
3:16 AM,28.4,19.4,69,30.05,10.0,East,4.6,-,N/A,,Clear,90,2013-04-30 11:16:00
3:36 AM,28.4,19.4,69,30.04,10.0,East,4.6,-,N/A,,Mostly Cloudy,100,2013-04-30 11:36:00
3:56 AM,28.4,19.4,69,30.04,10.0,East,4.6,-,N/A,,Overcast,80,2013-04-30 11:56:00
4:16 AM,28.4,19.4,69,30.03,10.0,East,4.6,-,N/A,,Overcast,90,2013-04-30 12:16:00
4:36 AM,28.4,19.4,69,30.02,10.0,East,4.6,-,N/A,,Overcast,80,2013-04-30 12:36:00
4:56 AM,28.4,19.4,69,30.02,10.0,East,4.6,-,N/A,,Overcast,100,2013-04-30 12:56:00
5:16 AM,28.4,21.2,74,30.01,10.0,East,6.9,-,N/A,,Overcast,90,2013-04-30 13:16:00
5:36 AM,28.4,19.4,69,30.00,10.0,East,5.8,-,N/A,,Overcast,100,2013-04-30 13:36:00
5:56 AM,28.4,19.4,69,30.00,10.0,East,4.6,-,N/A,,Overcast,80,2013-04-30 13:56:00
6:16 AM,28.4,19.4,69,30.00,10.0,Calm,Calm,-,N/A,,Overcast,0,2013-04-30 14:16:00
6:36 AM,28.4,21.2,74,29.99,10.0,Calm,Calm,-,N/A,,Overcast,0,2013-04-30 14:36:00
6:56 AM,28.4,21.2,74,29.99,10.0,Calm,Calm,-,N/A,,Overcast,0,2013-04-30 14:56:00
7:16 AM,28.4,21.2,74,29.98,10.0,East,3.5,-,N/A,,Overcast,80,2013-04-30 15:16:00
7:36 AM,30.2,21.2,69,29.98,10.0,East,4.6,-,N/A,,Overcast,80,2013-04-30 15:36:00
7:56 AM,30.2,21.2,69,29.97,10.0,East,3.5,-,N/A,,Overcast,80,2013-04-30 15:56:00
8:16 AM,30.2,21.2,69,29.96,10.0,East,4.6,-,N/A,,Overcast,90,2013-04-30 16:16:00
8:36 AM,33.8,21.2,60,29.96,10.0,SE,3.5,-,N/A,,Overcast,140,2013-04-30 16:36:00
8:56 AM,35.6,23.0,60,29.95,10.0,SSE,6.9,-,N/A,,Overcast,160,2013-04-30 16:56:00
9:16 AM,37.4,23.0,56,29.95,10.0,SSW,5.8,-,N/A,,Overcast,210,2013-04-30 17:16:00
9:36 AM,39.2,24.8,56,29.94,10.0,SW,10.4,-,N/A,,Overcast,230,2013-04-30 17:36:00
9:56 AM,39.2,24.8,56,29.93,10.0,SSW,5.8,17.3,N/A,,Overcast,200,2013-04-30 17:56:00
10:16 AM,39.2,24.8,56,29.93,10.0,SW,10.4,-,N/A,,Overcast,220,2013-04-30 18:16:00
10:36 AM,39.2,24.8,56,29.92,10.0,WSW,9.2,-,N/A,,Overcast,240,2013-04-30 18:36:00
10:56 AM,39.2,24.8,56,29.92,10.0,WSW,9.2,-,N/A,,Overcast,250,2013-04-30 18:56:00
11:16 AM,37.4,28.4,70,29.92,10.0,West,8.1,-,N/A,,Overcast,280,2013-04-30 19:16:00
11:36 AM,37.4,30.2,75,29.92,10.0,West,11.5,-,N/A,,Overcast,270,2013-04-30 19:36:00
11:56 AM,37.4,30.2,75,29.92,10.0,West,9.2,-,N/A,,Overcast,260,2013-04-30 19:56:00
12:16 PM,35.6,30.2,81,29.93,9.0,West,9.2,-,N/A,,Overcast,270,2013-04-30 20:16:00
12:36 PM,35.6,30.2,81,29.93,7.0,West,5.8,-,N/A,,Mostly Cloudy,260,2013-04-30 20:36:00
12:56 PM,35.6,28.4,75,29.93,10.0,West,10.4,-,N/A,,Overcast,260,2013-04-30 20:56:00
1:16 PM,35.6,30.2,81,29.93,10.0,West,10.4,-,N/A,,Overcast,270,2013-04-30 21:16:00
1:36 PM,35.6,30.2,81,29.92,10.0,West,6.9,-,N/A,,Overcast,260,2013-04-30 21:36:00
1:56 PM,37.4,30.2,75,29.92,10.0,SW,8.1,-,N/A,,Mostly Cloudy,220,2013-04-30 21:56:00
2:16 PM,37.4,30.2,75,29.92,10.0,WSW,12.7,-,N/A,,Mostly Cloudy,240,2013-04-30 22:16:00
2:36 PM,37.4,28.4,70,29.92,10.0,West,9.2,-,N/A,,Overcast,270,2013-04-30 22:36:00
2:56 PM,37.4,28.4,70,29.91,10.0,WSW,9.2,-,N/A,,Mostly Cloudy,250,2013-04-30 22:56:00
3:16 PM,39.2,28.4,65,29.91,10.0,West,6.9,-,N/A,,Mostly Cloudy,260,2013-04-30 23:16:00
3:36 PM,39.2,28.4,65,29.91,10.0,WSW,6.9,-,N/A,,Overcast,240,2013-04-30 23:36:00
3:56 PM,37.4,28.4,70,29.90,10.0,WSW,9.2,-,N/A,,Overcast,240,2013-04-30 23:56:00
4:16 PM,37.4,30.2,75,29.90,10.0,SE,5.8,-,N/A,,Mostly Cloudy,130,2013-05-01 00:16:00
4:36 PM,37.4,32.0,81,29.89,10.0,ESE,5.8,-,N/A,,Overcast,120,2013-05-01 00:36:00
4:56 PM,37.4,30.2,75,29.88,8.0,East,4.6,-,N/A,,Overcast,90,2013-05-01 00:56:00
5:16 PM,37.4,32.0,81,29.87,10.0,ESE,4.6,-,N/A,,Overcast,120,2013-05-01 01:16:00
5:36 PM,37.4,26.6,65,29.87,10.0,West,6.9,-,N/A,,Overcast,260,2013-05-01 01:36:00
5:56 PM,37.4,26.6,65,29.87,10.0,WSW,4.6,-,N/A,,Overcast,250,2013-05-01 01:56:00
6:16 PM,37.4,26.6,65,29.86,10.0,WNW,3.5,-,N/A,,Overcast,300,2013-05-01 02:16:00
6:36 PM,37.4,28.4,70,29.85,10.0,Calm,Calm,-,N/A,,Overcast,0,2013-05-01 02:36:00
6:56 PM,39.2,26.6,61,29.85,10.0,Calm,Calm,-,N/A,,Overcast,0,2013-05-01 02:56:00
7:16 PM,39.2,26.6,61,29.84,10.0,Calm,Calm,-,N/A,,Overcast,0,2013-05-01 03:16:00
7:36 PM,39.2,26.6,61,29.84,10.0,Calm,Calm,-,N/A,,Overcast,0,2013-05-01 03:36:00
7:56 PM,39.2,28.4,65,29.83,10.0,East,8.1,-,N/A,,Overcast,100,2013-05-01 03:56:00
8:16 PM,37.4,30.2,75,29.83,10.0,ESE,8.1,-,N/A,,Overcast,110,2013-05-01 04:16:00
8:36 PM,37.4,30.2,75,29.82,10.0,East,5.8,-,N/A,,Overcast,100,2013-05-01 04:36:00
8:56 PM,37.4,30.2,75,29.82,10.0,East,9.2,-,N/A,,Overcast,90,2013-05-01 04:56:00
9:16 PM,37.4,30.2,75,29.82,10.0,East,8.1,-,N/A,,Overcast,100,2013-05-01 05:16:00
9:36 PM,37.4,30.2,75,29.81,10.0,East,5.8,-,N/A,,Overcast,100,2013-05-01 05:36:00
9:56 PM,35.6,30.2,81,29.81,10.0,East,4.6,-,N/A,,Overcast,90,2013-05-01 05:56:00
10:16 PM,35.6,30.2,81,29.81,10.0,East,3.5,-,N/A,,Overcast,90,2013-05-01 06:16:00
10:36 PM,35.6,30.2,81,29.80,10.0,East,4.6,-,N/A,,Overcast,100,2013-05-01 06:36:00
10:56 PM,35.6,30.2,81,29.80,10.0,East,4.6,-,N/A,,Overcast,100,2013-05-01 06:56:00
11:16 PM,33.8,30.2,87,29.79,10.0,East,5.8,-,N/A,,Overcast,90,2013-05-01 07:16:00
11:36 PM,33.8,30.2,87,29.79,10.0,East,4.6,-,N/A,,Overcast,90,2013-05-01 07:36:00
11:56 PM,33.8,30.2,87,29.79,10.0,East,4.6,-,N/A,,Overcast,80,2013-05-01 07:56:00